| time (UTC) | temp C | wind direction | speed KPH | gust KPH | rain 1hr cm | rain 24hr cm | rain mn cm | humidity % | barometer mb |
| 20260906143333 | 22 | 354 | 1.6 | 8.0 | 0.00 | 0.00 | 0.00 | 33 | 979.6 |
| 20260906142853 | 23 | 348 | 6.4 | 8.0 | 0.00 | 0.00 | 0.00 | 33 | 979.6 |
| 20260906142428 | 22 | 98 | 0.0 | 4.8 | 0.00 | 0.00 | 0.00 | 33 | 979.7 |
| 20260906142018 | 22 | 106 | 0.0 | 4.8 | 0.00 | 0.00 | 0.00 | 34 | 979.5 |
| 20260906141603 | 22 | 106 | 3.2 | 4.8 | 0.00 | 0.00 | 0.00 | 34 | 979.8 |
| 20260906141118 | 22 | 114 | 3.2 | 4.8 | 0.00 | 0.00 | 0.00 | 34 | 980.0 |
| 20260906140638 | 22 | 114 | 6.4 | 11.3 | 0.00 | 0.00 | 0.00 | 34 | 979.8 |
| 20260906140233 | 22 | 114 | 1.6 | 8.0 | 0.00 | 0.00 | 0.00 | 34 | 979.8 |
| 20260906135800 | 22 | 344 | 4.8 | 0.0 | 0.00 | 0.00 | 0.00 | 34 | 980.0 |
| 20260906135318 | 22 | 107 | 1.6 | 4.8 | 0.00 | 0.00 | 0.00 | 34 | 980.0 |
| 20260906134859 | 22 | 107 | 4.8 | 8.0 | 0.00 | 0.00 | 0.00 | 34 | 979.9 |
| 20260906134438 | 22 | 104 | 0.0 | 4.8 | 0.00 | 0.00 | 0.00 | 34 | 979.9 |
| 20260906133958 | 22 | 104 | 1.6 | 1.6 | 0.00 | 0.00 | 0.00 | 34 | 979.8 |
| 20260906133538 | 22 | 132 | 3.2 | 4.8 | 0.00 | 0.00 | 0.00 | 34 | 979.9 |
| 20260906133053 | 21 | 132 | 1.6 | 8.0 | 0.00 | 0.00 | 0.00 | 36 | 979.9 |
| 20260906132643 | 21 | 132 | 6.4 | 11.3 | 0.00 | 0.00 | 0.00 | 36 | 979.9 |
| 20260906132159 | 21 | 132 | 0.0 | 8.0 | 0.00 | 0.00 | 0.00 | 36 | 980.1 |
| 20260906131719 | 23 | 107 | 4.8 | 1.6 | 0.00 | 0.00 | 0.00 | 34 | 980.1 |
| 20260906131259 | 22 | 107 | 1.6 | 1.6 | 0.00 | 0.00 | 0.00 | 34 | 980.1 |
| 20260906130828 | 21 | 107 | 1.6 | 1.6 | 0.00 | 0.00 | 0.00 | 36 | 980.0 |
| 20260906130427 | 22 | 107 | 4.8 | 4.8 | 0.00 | 0.00 | 0.00 | 37 | 979.9 |
| 20260906125958 | 22 | 107 | 0.0 | 1.6 | 0.00 | 0.00 | 0.00 | 37 | 979.9 |
| 20260906125528 | 22 | 107 | 0.0 | 4.8 | 0.00 | 0.00 | 0.00 | 37 | 980.1 |
| 20260906125108 | 20 | 96 | 6.4 | 11.3 | 0.00 | 0.00 | 0.00 | 37 | 980.2 |
| 20260906124633 | 20 | 80 | 4.8 | 8.0 | 0.00 | 0.00 | 0.00 | 41 | 980.1 |
| 20260906124153 | 20 | 336 | 3.2 | 8.0 | 0.00 | 0.00 | 0.00 | 39 | 980.2 |
| 20260906123713 | 20 | 327 | 0.0 | 14.5 | 0.00 | 0.00 | 0.00 | 39 | 980.2 |
| 20260906123238 | 20 | 89 | 0.0 | 4.8 | 0.00 | 0.00 | 0.00 | 39 | 980.4 |
| 20260906122818 | 20 | 349 | 0.0 | 1.6 | 0.00 | 0.00 | 0.00 | 40 | 980.6 |
| 20260906122333 | 21 | 349 | 0.0 | 1.6 | 0.00 | 0.00 | 0.00 | 37 | 980.5 |
| 20260906121903 | 21 | 342 | 0.0 | 11.3 | 0.00 | 0.00 | 0.00 | 37 | 980.5 |
| 20260906121448 | 20 | 345 | 0.0 | 0.0 | 0.00 | 0.00 | 0.00 | 37 | 980.4 |
| 20260906121023 | 21 | 345 | 6.4 | 0.0 | 0.00 | 0.00 | 0.00 | 37 | 980.4 |
| 20260906120558 | 21 | 107 | 3.2 | 0.0 | 0.00 | 0.00 | 0.00 | 37 | 980.5 |
| 20260906120138 | 21 | 0 | 0.0 | 0.0 | 0.00 | 0.00 | 0.00 | 37 | 980.6 |
| 20260906115708 | 20 | 108 | 3.2 | 4.8 | 0.00 | 0.00 | 0.00 | 42 | 980.7 |
| 20260906115239 | 20 | 108 | 0.0 | 8.0 | 0.00 | 0.00 | 0.00 | 42 | 980.7 |
| 20260906114833 | 19 | 14 | 0.0 | 1.6 | 0.00 | 0.00 | 0.00 | 44 | 980.8 |
| 20260906114405 | 19 | 14 | 4.8 | 14.5 | 0.00 | 0.00 | 0.00 | 44 | 980.9 |
| 20260906113959 | 18 | 113 | 8.0 | 11.3 | 0.00 | 0.00 | 0.00 | 44 | 980.8 |
| 20260906113533 | 19 | 106 | 8.0 | 14.5 | 0.00 | 0.00 | 0.00 | 44 | 981.1 |
| 20260906113043 | 19 | 51 | 1.6 | 14.5 | 0.00 | 0.00 | 0.00 | 44 | 981.1 |
| 20260906112618 | 19 | 51 | 4.8 | 11.3 | 0.00 | 0.00 | 0.00 | 44 | 980.9 |
| 20260906112133 | 19 | 99 | 0.0 | 1.6 | 0.00 | 0.00 | 0.00 | 44 | 980.9 |
| 20260906111718 | 19 | 99 | 0.0 | 4.8 | 0.00 | 0.00 | 0.00 | 44 | 981.0 |
| 20260906111233 | 19 | 99 | 0.0 | 14.5 | 0.00 | 0.00 | 0.00 | 44 | 981.0 |
| 20260906110813 | 18 | 105 | 6.4 | 4.8 | 0.00 | 0.00 | 0.00 | 44 | 981.0 |
| 20260906110348 | 18 | 102 | 0.0 | 8.0 | 0.00 | 0.00 | 0.00 | 44 | 981.0 |
| 20260906105900 | 18 | 110 | 1.6 | 8.0 | 0.00 | 0.00 | 0.00 | 44 | 980.8 |
| 20260906105418 | 18 | 114 | 1.6 | 11.3 | 0.00 | 0.00 | 0.00 | 46 | 981.2 |
| 20260906105008 | 19 | 114 | 1.6 | 14.5 | 0.00 | 0.00 | 0.00 | 45 | 981.2 |
| 20260906104528 | 17 | 101 | 1.6 | 4.8 | 0.00 | 0.00 | 0.00 | 45 | 980.9 |
| 20260906104038 | 17 | 126 | 1.6 | 4.8 | 0.00 | 0.00 | 0.00 | 45 | 981.1 |
| 20260906103549 | 17 | 126 | 9.7 | 14.5 | 0.00 | 0.00 | 0.00 | 48 | 981.1 |
| 20260906103118 | 18 | 104 | 4.8 | 11.3 | 0.00 | 0.00 | 0.00 | 48 | 981.1 |
| 20260906102643 | 18 | 147 | 6.4 | 11.3 | 0.00 | 0.00 | 0.00 | 48 | 981.3 |
| 20260906102219 | 18 | 110 | 1.6 | 17.7 | 0.00 | 0.00 | 0.00 | 47 | 981.3 |
| 20260906101748 | 18 | 115 | 1.6 | 14.5 | 0.00 | 0.00 | 0.00 | 45 | 981.4 |
| 20260906101323 | 18 | 115 | 1.6 | 1.6 | 0.00 | 0.00 | 0.00 | 51 | 981.4 |
| 20260906100908 | 17 | 347 | 3.2 | 11.3 | 0.00 | 0.00 | 0.00 | 51 | 981.4 |
| 20260906100418 | 17 | 99 | 3.2 | 1.6 | 0.00 | 0.00 | 0.00 | 51 | 981.5 |
| 20260906095958 | 16 | 357 | 1.6 | 4.8 | 0.00 | 0.00 | 0.00 | 51 | 981.4 |
| 20260906095523 | 16 | 77 | 0.0 | 4.8 | 0.00 | 0.00 | 0.00 | 54 | 981.4 |
| 20260906095029 | 16 | 339 | 1.6 | 4.8 | 0.00 | 0.00 | 0.00 | 54 | 981.6 |
| 20260906094559 | 16 | 339 | 0.0 | 11.3 | 0.00 | 0.00 | 0.00 | 55 | 981.7 |
| 20260906094148 | 17 | 339 | 0.0 | 11.3 | 0.00 | 0.00 | 0.00 | 54 | 981.6 |
| 20260906093653 | 17 | 28 | 12.9 | 4.8 | 0.00 | 0.00 | 0.00 | 54 | 981.7 |
| 20260906093218 | 17 | 112 | 1.6 | 8.0 | 0.00 | 0.00 | 0.00 | 56 | 981.7 |
| 20260906092733 | 15 | 351 | 1.6 | 4.8 | 0.00 | 0.00 | 0.00 | 56 | 981.7 |
| 20260906092248 | 15 | 352 | 3.2 | 8.0 | 0.00 | 0.00 | 0.00 | 56 | 981.6 |
| 20260906091839 | 15 | 352 | 0.0 | 4.8 | 0.00 | 0.00 | 0.00 | 56 | 981.8 |
| 20260906091408 | 15 | 328 | 8.0 | 4.8 | 0.00 | 0.00 | 0.00 | 53 | 981.7 |
| 20260906090953 | 15 | 101 | 0.0 | 4.8 | 0.00 | 0.00 | 0.00 | 56 | 981.8 |
| 20260906090518 | 16 | 341 | 12.9 | 8.0 | 0.00 | 0.00 | 0.00 | 52 | 981.8 |
| 20260906090058 | 16 | 110 | 1.6 | 8.0 | 0.00 | 0.00 | 0.00 | 52 | 981.8 |
| 20260906085613 | 16 | 110 | 3.2 | 8.0 | 0.00 | 0.00 | 0.00 | 52 | 981.9 |
| 20260906085119 | 13 | 110 | 1.6 | 4.8 | 0.00 | 0.00 | 0.00 | 52 | 981.7 |
| 20260906084708 | 13 | 345 | 3.2 | 1.6 | 0.00 | 0.00 | 0.00 | 59 | 981.7 |
| 20260906084225 | 13 | 345 | 11.3 | 8.0 | 0.00 | 0.00 | 0.00 | 59 | 981.8 |
| 20260906083748 | 14 | 325 | 11.3 | 8.0 | 0.00 | 0.00 | 0.00 | 59 | 981.5 |
| 20260906083318 | 14 | 344 | 0.0 | 14.5 | 0.00 | 0.00 | 0.00 | 61 | 981.7 |
| 20260906082843 | 14 | 347 | 1.6 | 4.8 | 0.00 | 0.00 | 0.00 | 59 | 981.8 |
| 20260906082423 | 13 | 15 | 11.3 | 14.5 | 0.00 | 0.00 | 0.00 | 59 | 981.7 |
| 20260906082003 | 13 | 15 | 6.4 | 4.8 | 0.00 | 0.00 | 0.00 | 60 | 981.7 |
| 20260906081538 | 13 | 19 | 4.8 | 4.8 | 0.00 | 0.00 | 0.00 | 60 | 981.7 |
| 20260906081118 | 13 | 334 | 3.2 | 8.0 | 0.00 | 0.00 | 0.00 | 61 | 981.7 |
| 20260906080648 | 14 | 337 | 1.6 | 11.3 | 0.00 | 0.00 | 0.00 | 61 | 981.6 |
| 20260906080203 | 14 | 342 | 1.6 | 1.6 | 0.00 | 0.00 | 0.00 | 61 | 981.5 |
| 20260906075725 | 14 | 341 | 1.6 | 1.6 | 0.00 | 0.00 | 0.00 | 61 | 981.7 |
| 20260906075248 | 13 | 341 | 1.6 | 1.6 | 0.00 | 0.00 | 0.00 | 63 | 981.4 |
| 20260906074753 | 14 | 336 | 12.9 | 8.0 | 0.00 | 0.00 | 0.00 | 63 | 981.4 |
| 20260906074328 | 14 | 69 | 14.5 | 4.8 | 0.00 | 0.00 | 0.00 | 63 | 981.6 |
| 20260906073903 | 13 | 69 | 3.2 | 4.8 | 0.00 | 0.00 | 0.00 | 63 | 981.4 |
| 20260906073423 | 13 | 69 | 0.0 | 4.8 | 0.00 | 0.00 | 0.00 | 68 | 981.3 |
| 20260906072958 | 13 | 0 | 0.0 | 0.0 | 0.00 | 0.00 | 0.00 | 100 | 981.8 |
| 20260906072508 | 13 | 333 | 3.2 | 14.5 | 0.00 | 0.00 | 0.00 | 70 | 981.7 |
| 20260906072023 | 12 | 334 | 3.2 | 11.3 | 0.00 | 0.00 | 0.00 | 69 | 981.4 |
| 20260906071533 | 13 | 340 | 3.2 | 11.3 | 0.00 | 0.00 | 0.00 | 70 | 981.4 |
| 20260906071108 | 13 | 347 | 6.4 | 1.6 | 0.00 | 0.00 | 0.00 | 68 | 981.1 |
| 20260906070618 | 13 | 7 | 1.6 | 4.8 | 0.00 | 0.00 | 0.00 | 68 | 981.2 |
| 20260906070133 | 13 | 7 | 0.0 | 0.0 | 0.00 | 0.00 | 0.00 | 68 | 981.1 |
| 20260906065658 | 15 | 7 | 0.0 | 4.8 | 0.00 | 0.00 | 0.00 | 68 | 981.1 |
| 20260906065213 | 15 | 22 | 1.6 | 1.6 | 0.00 | 0.00 | 0.00 | 68 | 981.2 |
| 20260906064738 | 14 | 66 | 0.0 | 1.6 | 0.00 | 0.00 | 0.00 | 68 | 981.1 |
| 20260906064313 | 14 | 64 | 0.0 | 1.6 | 0.00 | 0.00 | 0.00 | 68 | 981.3 |
| 20260906063843 | 14 | 64 | 0.0 | 1.6 | 0.00 | 0.00 | 0.00 | 67 | 981.3 |
| 20260906063408 | 13 | 64 | 1.6 | 1.6 | 0.00 | 0.00 | 0.00 | 67 | 981.3 |
| 20260906062938 | 13 | 64 | 1.6 | 1.6 | 0.00 | 0.00 | 0.00 | 67 | 981.1 |
| 20260906062513 | 13 | 58 | 1.6 | 1.6 | 0.00 | 0.00 | 0.00 | 67 | 981.1 |
| 20260906062033 | 13 | 39 | 3.2 | 1.6 | 0.00 | 0.00 | 0.00 | 67 | 981.0 |
| 20260906061608 | 13 | 39 | 3.2 | 1.6 | 0.00 | 0.00 | 0.00 | 67 | 981.0 |
| 20260906061153 | 11 | 39 | 3.2 | 1.6 | 0.00 | 0.00 | 0.00 | 69 | 981.0 |
| 20260906060708 | 11 | 39 | 3.2 | 1.6 | 0.00 | 0.00 | 0.00 | 80 | 980.9 |
| 20260906060243 | 11 | 39 | 1.6 | 1.6 | 0.00 | 0.00 | 0.00 | 80 | 980.7 |
| 20260906055803 | 9 | 39 | 1.6 | 1.6 | 0.00 | 0.00 | 0.00 | 80 | 980.9 |
| 20260906055313 | 9 | 39 | 0.0 | 0.0 | 0.00 | 0.00 | 0.00 | 84 | 980.8 |
| 20260906054853 | 9 | 39 | 1.6 | 0.0 | 0.00 | 0.00 | 0.00 | 84 | 981.1 |
| 20260906054428 | 9 | 39 | 1.6 | 1.6 | 0.00 | 0.00 | 0.00 | 84 | 980.7 |
| 20260906054000 | 9 | 39 | 1.6 | 1.6 | 0.00 | 0.00 | 0.00 | 84 | 981.0 |
| 20260906053523 | 8 | 39 | 1.6 | 0.0 | 0.00 | 0.00 | 0.00 | 84 | 980.7 |
| 20260906053108 | 8 | 39 | 1.6 | 0.0 | 0.00 | 0.00 | 0.00 | 84 | 980.8 |
| 20260906052633 | 8 | 39 | 1.6 | 0.0 | 0.00 | 0.00 | 0.00 | 84 | 980.5 |
| 20260906052158 | 8 | 39 | 0.0 | 0.0 | 0.00 | 0.00 | 0.00 | 84 | 980.7 |
| 20260906051728 | 8 | 39 | 0.0 | 0.0 | 0.00 | 0.00 | 0.00 | 89 | 980.6 |
| 20260906051253 | 8 | 39 | 1.6 | 0.0 | 0.00 | 0.00 | 0.00 | 89 | 980.4 |
| 20260906050819 | 8 | 39 | 1.6 | 0.0 | 0.00 | 0.00 | 0.00 | 89 | 980.4 |
| 20260906050348 | 8 | 39 | 1.6 | 0.0 | 0.00 | 0.00 | 0.00 | 90 | 980.6 |
| 20260906045908 | 8 | 39 | 0.0 | 0.0 | 0.00 | 0.00 | 0.00 | 89 | 980.4 |
| 20260906045418 | 8 | 39 | 1.6 | 0.0 | 0.00 | 0.00 | 0.00 | 85 | 980.5 |
| 20260906044943 | 9 | 39 | 0.0 | 0.0 | 0.00 | 0.00 | 0.00 | 85 | 980.4 |
| 20260906044539 | 8 | 39 | 1.6 | 0.0 | 0.00 | 0.00 | 0.00 | 90 | 980.4 |
| 20260906044113 | 8 | 39 | 0.0 | 0.0 | 0.00 | 0.00 | 0.00 | 90 | 980.3 |
| 20260906043628 | 8 | 39 | 0.0 | 0.0 | 0.00 | 0.00 | 0.00 | 90 | 980.2 |
| 20260906043208 | 8 | 39 | 0.0 | 0.0 | 0.00 | 0.00 | 0.00 | 90 | 980.4 |
| 20260906042753 | 8 | 39 | 0.0 | 0.0 | 0.00 | 0.00 | 0.00 | 90 | 980.4 |
| 20260906042339 | 8 | 39 | 0.0 | 0.0 | 0.00 | 0.00 | 0.00 | 91 | 980.4 |
| 20260906041939 | 8 | 39 | 0.0 | 0.0 | 0.00 | 0.00 | 0.00 | 91 | 980.4 |
| 20260906041448 | 8 | 66 | 0.0 | 0.0 | 0.00 | 0.00 | 0.00 | 91 | 980.5 |
| 20260906041048 | 8 | 66 | 0.0 | 0.0 | 0.00 | 0.00 | 0.00 | 91 | 980.3 |
| 20260906040638 | 8 | 66 | 1.6 | 0.0 | 0.00 | 0.00 | 0.00 | 91 | 980.6 |
| 20260906040201 | 8 | 66 | 0.0 | 0.0 | 0.00 | 0.00 | 0.00 | 91 | 980.3 |
| 20260906035748 | 8 | 66 | 0.0 | 0.0 | 0.00 | 0.00 | 0.00 | 90 | 980.4 |
| 20260906035323 | 8 | 66 | 1.6 | 0.0 | 0.00 | 0.00 | 0.00 | 90 | 980.3 |
| 20260906034853 | 8 | 66 | 0.0 | 0.0 | 0.00 | 0.00 | 0.00 | 91 | 980.2 |
| 20260906034443 | 8 | 335 | 0.0 | 1.6 | 0.00 | 0.00 | 0.00 | 91 | 980.2 |
| 20260906034013 | 8 | 335 | 0.0 | 1.6 | 0.00 | 0.00 | 0.00 | 91 | 980.1 |
| 20260906033533 | 8 | 332 | 0.0 | 1.6 | 0.00 | 0.00 | 0.00 | 89 | 979.8 |
| 20260906033045 | 8 | 332 | 0.0 | 4.8 | 0.00 | 0.00 | 0.00 | 89 | 980.1 |
| 20260906032629 | 8 | 76 | 0.0 | 1.6 | 0.00 | 0.00 | 0.00 | 89 | 980.3 |
| 20260906032208 | 8 | 76 | 0.0 | 0.0 | 0.00 | 0.00 | 0.00 | 89 | 979.9 |
| 20260906031743 | 8 | 76 | 0.0 | 0.0 | 0.00 | 0.00 | 0.00 | 89 | 980.1 |
| 20260906031300 | 8 | 76 | 0.0 | 0.0 | 0.00 | 0.00 | 0.00 | 87 | 980.2 |
| 20260906030828 | 9 | 76 | 0.0 | 0.0 | 0.00 | 0.00 | 0.00 | 87 | 980.0 |
| 20260906030350 | 9 | 76 | 0.0 | 0.0 | 0.00 | 0.00 | 0.00 | 87 | 980.0 |
| 20260906025908 | 9 | 76 | 0.0 | 0.0 | 0.00 | 0.00 | 0.00 | 87 | 980.1 |
| 20260906025428 | 9 | 76 | 0.0 | 0.0 | 0.00 | 0.00 | 0.00 | 87 | 980.0 |
| 20260906024933 | 9 | 76 | 0.0 | 1.6 | 0.00 | 0.00 | 0.00 | 87 | 979.8 |
| 20260906024458 | 9 | 76 | 0.0 | 4.8 | 0.00 | 0.00 | 0.00 | 87 | 979.9 |
| 20260906024023 | 9 | 76 | 1.6 | 4.8 | 0.00 | 0.00 | 0.00 | 87 | 979.9 |
| 20260906023550 | 9 | 76 | 1.6 | 4.8 | 0.00 | 0.00 | 0.00 | 87 | 979.9 |
| 20260906023119 | 10 | 76 | 1.6 | 4.8 | 0.00 | 0.00 | 0.00 | 87 | 979.9 |
| 20260906022633 | 10 | 76 | 1.6 | 4.8 | 0.00 | 0.00 | 0.00 | 87 | 979.8 |
| 20260906022228 | 10 | 76 | 1.6 | 1.6 | 0.00 | 0.00 | 0.00 | 87 | 979.7 |
| 20260906021818 | 10 | 76 | 0.0 | 1.6 | 0.00 | 0.00 | 0.00 | 87 | 979.9 |
| 20260906021343 | 10 | 120 | 1.6 | 1.6 | 0.00 | 0.00 | 0.00 | 85 | 979.6 |
| 20260906020908 | 10 | 210 | 0.0 | 1.6 | 0.00 | 0.00 | 0.00 | 85 | 979.6 |
| 20260906020428 | 10 | 210 | 1.6 | 1.6 | 0.00 | 0.00 | 0.00 | 85 | 979.7 |
| 20260906015933 | 10 | 210 | 0.0 | 1.6 | 0.00 | 0.00 | 0.00 | 85 | 979.7 |
| 20260906015533 | 10 | 210 | 0.0 | 1.6 | 0.00 | 0.00 | 0.00 | 85 | 979.7 |
| 20260906015048 | 10 | 210 | 0.0 | 0.0 | 0.00 | 0.00 | 0.00 | 82 | 979.3 |
| 20260906014608 | 10 | 210 | 0.0 | 0.0 | 0.00 | 0.00 | 0.00 | 82 | 979.7 |
| 20260906014128 | 10 | 210 | 0.0 | 0.0 | 0.00 | 0.00 | 0.00 | 82 | 979.4 |
| 20260906013713 | 10 | 210 | 0.0 | 0.0 | 0.00 | 0.00 | 0.00 | 82 | 979.4 |
| 20260906013248 | 10 | 210 | 0.0 | 0.0 | 0.00 | 0.00 | 0.00 | 82 | 979.4 |
| 20260906012808 | 10 | 210 | 0.0 | 1.6 | 0.00 | 0.00 | 0.00 | 82 | 979.8 |
| 20260906012348 | 10 | 210 | 0.0 | 0.0 | 0.00 | 0.00 | 0.00 | 82 | 979.4 |
| 20260906011918 | 10 | 210 | 0.0 | 1.6 | 0.00 | 0.00 | 0.00 | 82 | 979.4 |
| 20260906011448 | 10 | 210 | 0.0 | 1.6 | 0.00 | 0.00 | 0.00 | 82 | 979.3 |
| 20260906011038 | 10 | 210 | 1.6 | 1.6 | 0.00 | 0.00 | 0.00 | 82 | 979.3 |
| 20260906010608 | 10 | 210 | 3.2 | 1.6 | 0.00 | 0.00 | 0.00 | 82 | 979.1 |
| 20260906010138 | 10 | 210 | 0.0 | 0.0 | 0.00 | 0.00 | 0.00 | 82 | 979.3 |
| 20260906005718 | 10 | 210 | 0.0 | 0.0 | 0.00 | 0.00 | 0.00 | 82 | 979.3 |
| 20260906005308 | 10 | 210 | 0.0 | 0.0 | 0.00 | 0.00 | 0.00 | 82 | 979.3 |
| 20260906004818 | 10 | 210 | 0.0 | 0.0 | 0.00 | 0.00 | 0.00 | 82 | 979.1 |
| 20260906004358 | 10 | 210 | 0.0 | 0.0 | 0.00 | 0.00 | 0.00 | 82 | 979.5 |
| 20260906003918 | 10 | 210 | 0.0 | 0.0 | 0.00 | 0.00 | 0.00 | 82 | 979.3 |
| 20260906003439 | 11 | 210 | 0.0 | 0.0 | 0.00 | 0.00 | 0.00 | 82 | 979.3 |
| 20260906003008 | 11 | 210 | 0.0 | 0.0 | 0.00 | 0.00 | 0.00 | 82 | 979.3 |
| 20260906002538 | 11 | 210 | 1.6 | 1.6 | 0.00 | 0.00 | 0.00 | 74 | 979.3 |
| 20260906002109 | 11 | 210 | 0.0 | 1.6 | 0.00 | 0.00 | 0.00 | 74 | 979.2 |
| 20260906001628 | 11 | 210 | 0.0 | 1.6 | 0.00 | 0.00 | 0.00 | 74 | 979.2 |
| 20260906001208 | 11 | 210 | 1.6 | 1.6 | 0.00 | 0.00 | 0.00 | 74 | 979.0 |
| 20260906000728 | 11 | 211 | 0.0 | 1.6 | 0.00 | 0.00 | 0.00 | 74 | 978.9 |
| 20260906000248 | 11 | 211 | 1.6 | 1.6 | 0.00 | 0.00 | 0.00 | 74 | 979.0 |
| 20260905235800 | 11 | 166 | 3.2 | 0.0 | 0.00 | 0.00 | 0.00 | 74 | 979.1 |
| 20260905235338 | 11 | 166 | 1.6 | 0.0 | 0.00 | 0.00 | 0.00 | 74 | 979.0 |
| 20260905234853 | 11 | 166 | 0.0 | 0.0 | 0.00 | 0.00 | 0.00 | 74 | 979.1 |
| 20260905234418 | 11 | 179 | 0.0 | 0.0 | 0.00 | 0.00 | 0.00 | 74 | 978.9 |
| 20260905233928 | 11 | 179 | 0.0 | 0.0 | 0.00 | 0.00 | 0.00 | 74 | 979.0 |
| 20260905233518 | 11 | 153 | 1.6 | 0.0 | 0.00 | 0.00 | 0.00 | 74 | 978.9 |
| 20260905233053 | 12 | 15 | 1.6 | 0.0 | 0.00 | 0.00 | 0.00 | 74 | 978.9 |
| 20260905232618 | 12 | 15 | 1.6 | 0.0 | 0.00 | 0.00 | 0.00 | 74 | 979.0 |
| 20260905232123 | 11 | 15 | 0.0 | 0.0 | 0.00 | 0.00 | 0.00 | 74 | 978.6 |
| 20260905231659 | 11 | 15 | 0.0 | 0.0 | 0.00 | 0.00 | 0.00 | 74 | 978.9 |
| 20260905231228 | 11 | 15 | 0.0 | 0.0 | 0.00 | 0.00 | 0.00 | 74 | 978.7 |
| 20260905230748 | 11 | 15 | 0.0 | 1.6 | 0.00 | 0.00 | 0.00 | 76 | 978.7 |
| 20260905230303 | 11 | 15 | 0.0 | 0.0 | 0.00 | 0.00 | 0.00 | 76 | 978.8 |
| 20260905225828 | 12 | 15 | 0.0 | 0.0 | 0.00 | 0.00 | 0.00 | 73 | 978.8 |
| 20260905225358 | 12 | 15 | 1.6 | 1.6 | 0.00 | 0.00 | 0.00 | 73 | 978.7 |
| 20260905224938 | 12 | 15 | 0.0 | 1.6 | 0.00 | 0.00 | 0.00 | 72 | 978.5 |
| 20260905224458 | 12 | 15 | 0.0 | 1.6 | 0.00 | 0.00 | 0.00 | 72 | 978.6 |
| 20260905224038 | 12 | 15 | 0.0 | 1.6 | 0.00 | 0.00 | 0.00 | 71 | 978.6 |
| 20260905223543 | 13 | 24 | 0.0 | 0.0 | 0.00 | 0.00 | 0.00 | 71 | 978.4 |
| 20260905223058 | 13 | 24 | 0.0 | 1.6 | 0.00 | 0.00 | 0.00 | 69 | 978.6 |
| 20260905222613 | 13 | 2 | 0.0 | 1.6 | 0.00 | 0.00 | 0.00 | 60 | 978.5 |
| 20260905222148 | 13 | 2 | 0.0 | 1.6 | 0.00 | 0.00 | 0.00 | 60 | 978.5 |
| 20260905221653 | 12 | 2 | 1.6 | 1.6 | 0.00 | 0.00 | 0.00 | 60 | 978.3 |
| 20260905221223 | 12 | 294 | 1.6 | 1.6 | 0.00 | 0.00 | 0.00 | 60 | 978.3 |
| 20260905220748 | 12 | 294 | 3.2 | 4.8 | 0.00 | 0.00 | 0.00 | 60 | 978.3 |
| 20260905220318 | 12 | 294 | 3.2 | 1.6 | 0.00 | 0.00 | 0.00 | 60 | 978.2 |
| 20260905215833 | 12 | 294 | 1.6 | 4.8 | 0.00 | 0.00 | 0.00 | 60 | 978.1 |
| 20260905215418 | 12 | 293 | 3.2 | 4.8 | 0.00 | 0.00 | 0.00 | 60 | 978.3 |
| 20260905214948 | 12 | 293 | 1.6 | 4.8 | 0.00 | 0.00 | 0.00 | 60 | 978.5 |
| 20260905214513 | 13 | 293 | 1.6 | 4.8 | 0.00 | 0.00 | 0.00 | 60 | 978.4 |
| 20260905214023 | 13 | 293 | 1.6 | 4.8 | 0.00 | 0.00 | 0.00 | 60 | 978.3 |
| 20260905213553 | 13 | 293 | 1.6 | 4.8 | 0.00 | 0.00 | 0.00 | 60 | 978.5 |
| 20260905213118 | 13 | 292 | 4.8 | 4.8 | 0.00 | 0.00 | 0.00 | 60 | 978.2 |
| 20260905212658 | 13 | 339 | 4.8 | 4.8 | 0.00 | 0.00 | 0.00 | 60 | 978.3 |
| 20260905212218 | 14 | 339 | 1.6 | 1.6 | 0.00 | 0.00 | 0.00 | 60 | 978.3 |
| 20260905211738 | 14 | 339 | 1.6 | 1.6 | 0.00 | 0.00 | 0.00 | 60 | 978.3 |
| 20260905211318 | 14 | 339 | 0.0 | 1.6 | 0.00 | 0.00 | 0.00 | 60 | 978.1 |
| 20260905210858 | 15 | 339 | 0.0 | 1.6 | 0.00 | 0.00 | 0.00 | 60 | 978.3 |
| 20260905210428 | 15 | 339 | 0.0 | 1.6 | 0.00 | 0.00 | 0.00 | 60 | 978.1 |
| 20260905205948 | 15 | 339 | 0.0 | 1.6 | 0.00 | 0.00 | 0.00 | 60 | 978.0 |
| 20260905205523 | 15 | 339 | 0.0 | 1.6 | 0.00 | 0.00 | 0.00 | 60 | 978.0 |
| 20260905205048 | 15 | 339 | 1.6 | 1.6 | 0.00 | 0.00 | 0.00 | 60 | 978.0 |
| 20260905204633 | 15 | 339 | 0.0 | 1.6 | 0.00 | 0.00 | 0.00 | 56 | 977.9 |
| 20260905204158 | 16 | 339 | 0.0 | 1.6 | 0.00 | 0.00 | 0.00 | 56 | 978.0 |
| 20260905203728 | 16 | 339 | 0.0 | 1.6 | 0.00 | 0.00 | 0.00 | 56 | 977.8 |
| 20260905203243 | 16 | 340 | 8.0 | 4.8 | 0.00 | 0.00 | 0.00 | 56 | 978.0 |
| 20260905202818 | 16 | 340 | 8.0 | 4.8 | 0.00 | 0.00 | 0.00 | 56 | 977.7 |
| 20260905202343 | 16 | 295 | 8.0 | 8.0 | 0.00 | 0.00 | 0.00 | 56 | 977.7 |
| 20260905201913 | 16 | 295 | 8.0 | 8.0 | 0.00 | 0.00 | 0.00 | 54 | 977.7 |
| 20260905201443 | 16 | 295 | 8.0 | 8.0 | 0.00 | 0.00 | 0.00 | 54 | 977.4 |
| 20260905201008 | 16 | 348 | 3.2 | 20.9 | 0.00 | 0.00 | 0.00 | 54 | 977.8 |
| 20260905200559 | 16 | 348 | 8.0 | 20.9 | 0.00 | 0.00 | 0.00 | 54 | 977.7 |
| 20260905200139 | 16 | 348 | 8.0 | 4.8 | 0.00 | 0.00 | 0.00 | 54 | 977.5 |
| 20260905195718 | 16 | 348 | 6.4 | 4.8 | 0.00 | 0.00 | 0.00 | 54 | 977.5 |
| 20260905195306 | 16 | 348 | 6.4 | 4.8 | 0.00 | 0.00 | 0.00 | 54 | 977.4 |
| 20260905194843 | 16 | 348 | 6.4 | 4.8 | 0.00 | 0.00 | 0.00 | 54 | 977.3 |
| 20260905194408 | 16 | 303 | 6.4 | 14.5 | 0.00 | 0.00 | 0.00 | 54 | 977.3 |
| 20260905193948 | 16 | 303 | 6.4 | 14.5 | 0.00 | 0.00 | 0.00 | 54 | 977.6 |
| 20260905193503 | 16 | 303 | 6.4 | 14.5 | 0.00 | 0.00 | 0.00 | 54 | 977.2 |
| 20260905193038 | 16 | 303 | 4.8 | 11.3 | 0.00 | 0.00 | 0.00 | 54 | 977.3 |
| 20260905192609 | 16 | 303 | 8.0 | 11.3 | 0.00 | 0.00 | 0.00 | 54 | 977.3 |
| 20260905192138 | 16 | 303 | 4.8 | 11.3 | 0.00 | 0.00 | 0.00 | 54 | 977.2 |
| 20260905191733 | 17 | 303 | 4.8 | 11.3 | 0.00 | 0.00 | 0.00 | 54 | 977.3 |
| 20260905191259 | 17 | 329 | 4.8 | 8.0 | 0.00 | 0.00 | 0.00 | 54 | 977.2 |
| 20260905190828 | 17 | 347 | 4.8 | 11.3 | 0.00 | 0.00 | 0.00 | 54 | 977.4 |
| 20260905190338 | 17 | 347 | 6.4 | 8.0 | 0.00 | 0.00 | 0.00 | 47 | 977.3 |
| 20260905185908 | 17 | 345 | 6.4 | 8.0 | 0.00 | 0.00 | 0.00 | 47 | 977.4 |
| 20260905185433 | 17 | 345 | 1.6 | 4.8 | 0.00 | 0.00 | 0.00 | 47 | 977.3 |
| 20260905185003 | 17 | 345 | 3.2 | 8.0 | 0.00 | 0.00 | 0.00 | 47 | 977.1 |
| 20260905184533 | 17 | 345 | 0.0 | 8.0 | 0.00 | 0.00 | 0.00 | 47 | 977.2 |
| 20260905184108 | 17 | 345 | 6.4 | 11.3 | 0.00 | 0.00 | 0.00 | 47 | 977.1 |
| 20260905183648 | 17 | 345 | 6.4 | 11.3 | 0.00 | 0.00 | 0.00 | 47 | 977.0 |
| 20260905183238 | 17 | 345 | 6.4 | 4.8 | 0.00 | 0.00 | 0.00 | 47 | 977.1 |
| 20260905182808 | 17 | 345 | 6.4 | 4.8 | 0.00 | 0.00 | 0.00 | 47 | 976.9 |
| 20260905182353 | 17 | 337 | 6.4 | 14.5 | 0.00 | 0.00 | 0.00 | 47 | 976.8 |
| 20260905181943 | 17 | 337 | 6.4 | 14.5 | 0.00 | 0.00 | 0.00 | 47 | 977.0 |
| 20260905181458 | 18 | 337 | 8.0 | 11.3 | 0.00 | 0.00 | 0.00 | 47 | 976.8 |
| 20260905181018 | 18 | 330 | 8.0 | 14.5 | 0.00 | 0.00 | 0.00 | 47 | 976.6 |
| 20260905180538 | 18 | 330 | 6.4 | 14.5 | 0.00 | 0.00 | 0.00 | 47 | 976.5 |
| 20260905180128 | 18 | 330 | 9.7 | 11.3 | 0.00 | 0.00 | 0.00 | 47 | 976.5 |
| 20260905175658 | 18 | 330 | 8.0 | 14.5 | 0.00 | 0.00 | 0.00 | 47 | 976.4 |
| 20260905175223 | 18 | 330 | 8.0 | 14.5 | 0.00 | 0.00 | 0.00 | 47 | 976.3 |
| 20260905174748 | 18 | 330 | 8.0 | 11.3 | 0.00 | 0.00 | 0.00 | 47 | 976.3 |
| 20260905174327 | 18 | 0 | 6.4 | 11.3 | 0.00 | 0.00 | 0.00 | 47 | 976.3 |
| 20260905173904 | 20 | 0 | 6.4 | 17.7 | 0.00 | 0.00 | 0.00 | 47 | 976.2 |
| 20260905173458 | 20 | 0 | 8.0 | 14.5 | 0.00 | 0.00 | 0.00 | 47 | 976.2 |
| 20260905173028 | 20 | 0 | 11.3 | 20.9 | 0.00 | 0.00 | 0.00 | 47 | 976.2 |
| 20260905172548 | 20 | 336 | 9.7 | 14.5 | 0.00 | 0.00 | 0.00 | 45 | 976.1 |
| 20260905172113 | 20 | 355 | 9.7 | 17.7 | 0.00 | 0.00 | 0.00 | 45 | 976.1 |
| 20260905171643 | 20 | 345 | 8.0 | 17.7 | 0.00 | 0.00 | 0.00 | 45 | 976.1 |
| 20260905171212 | 20 | 345 | 14.5 | 17.7 | 0.00 | 0.00 | 0.00 | 42 | 976.0 |
| 20260905170748 | 20 | 4 | 14.5 | 35.4 | 0.00 | 0.00 | 0.00 | 42 | 976.0 |
| 20260905170338 | 21 | 4 | 14.5 | 35.4 | 0.00 | 0.00 | 0.00 | 42 | 976.0 |
| 20260905165924 | 21 | 340 | 8.0 | 20.9 | 0.00 | 0.00 | 0.00 | 42 | 975.9 |
| 20260905165438 | 21 | 340 | 8.0 | 22.5 | 0.00 | 0.00 | 0.00 | 42 | 975.9 |
| 20260905165018 | 21 | 356 | 8.0 | 32.2 | 0.00 | 0.00 | 0.00 | 42 | 975.8 |
| 20260905164533 | 21 | 356 | 17.7 | 25.7 | 0.00 | 0.00 | 0.00 | 42 | 976.0 |
| 20260905164113 | 21 | 356 | 17.7 | 25.7 | 0.00 | 0.00 | 0.00 | 42 | 975.8 |
| 20260905163628 | 21 | 356 | 17.7 | 37.0 | 0.00 | 0.00 | 0.00 | 41 | 975.8 |
| 20260905163153 | 21 | 307 | 19.3 | 32.2 | 0.00 | 0.00 | 0.00 | 41 | 975.8 |
| 20260905162733 | 21 | 307 | 11.3 | 32.2 | 0.00 | 0.00 | 0.00 | 41 | 975.6 |
| 20260905162305 | 21 | 293 | 11.3 | 29.0 | 0.00 | 0.00 | 0.00 | 41 | 975.6 |
| 20260905161833 | 21 | 346 | 11.3 | 22.5 | 0.00 | 0.00 | 0.00 | 41 | 975.5 |
| 20260905161418 | 21 | 274 | 11.3 | 25.7 | 0.00 | 0.00 | 0.00 | 41 | 975.2 |
| 20260905161003 | 21 | 349 | 11.3 | 25.7 | 0.00 | 0.00 | 0.00 | 41 | 975.1 |
| 20260905160538 | 21 | 349 | 11.3 | 25.7 | 0.00 | 0.00 | 0.00 | 41 | 975.2 |
| 20260905155643 | 21 | 356 | 14.5 | 49.9 | 0.00 | 0.00 | 0.00 | 41 | 975.1 |
| 20260905155153 | 21 | 335 | 6.4 | 32.2 | 0.00 | 0.00 | 0.00 | 41 | 975.2 |
| 20260905154723 | 21 | 352 | 16.1 | 29.0 | 0.00 | 0.00 | 0.00 | 41 | 975.0 |
| 20260905154238 | 21 | 352 | 17.7 | 29.0 | 0.00 | 0.00 | 0.00 | 41 | 975.0 |
| 20260905153758 | 21 | 358 | 20.9 | 49.9 | 0.00 | 0.00 | 0.00 | 41 | 974.9 |
| 20260905153327 | 21 | 339 | 22.5 | 20.9 | 0.00 | 0.00 | 0.00 | 41 | 975.0 |
| 20260905152843 | 21 | 350 | 22.5 | 37.0 | 0.00 | 0.00 | 0.00 | 41 | 974.9 |
| 20260905152403 | 21 | 347 | 22.5 | 32.2 | 0.00 | 0.00 | 0.00 | 40 | 974.7 |
| 20260905151948 | 21 | 5 | 22.5 | 32.2 | 0.00 | 0.00 | 0.00 | 40 | 975.0 |
| 20260905151533 | 21 | 358 | 25.7 | 37.0 | 0.00 | 0.00 | 0.00 | 40 | 974.9 |
| 20260905151118 | 21 | 287 | 22.5 | 37.0 | 0.00 | 0.00 | 0.00 | 40 | 974.7 |
| 20260905150643 | 21 | 242 | 12.9 | 37.0 | 0.00 | 0.00 | 0.00 | 40 | 974.7 |
| 20260905150208 | 21 | 9 | 12.9 | 35.4 | 0.00 | 0.00 | 0.00 | 40 | 974.9 |
| 20260905145748 | 21 | 284 | 24.1 | 35.4 | 0.00 | 0.00 | 0.00 | 40 | 974.6 |
| 20260905145308 | 21 | 284 | 20.9 | 49.9 | 0.00 | 0.00 | 0.00 | 40 | 974.5 |
| 20260905144858 | 21 | 284 | 20.9 | 40.2 | 0.00 | 0.00 | 0.00 | 40 | 974.4 |
| 20260905144413 | 21 | 286 | 11.3 | 22.5 | 0.00 | 0.00 | 0.00 | 40 | 974.6 |
| 20260905143923 | 21 | 330 | 30.6 | 35.4 | 0.00 | 0.00 | 0.00 | 40 | 974.4 |